User: anonymous   Login
Location: Dumpton Point
(51.3500°N, 1.4433°E)
Time: 07:28:22
(UTC+00:00)
Language:

Explorer 7 - Orbit

View from above orbital plane
View from above orbital plane
View from above satellite
View from above satellite

Ground track
Ground track

The orbit data is extracted from the following two-line orbital elements,

1 00022U 59009A   21109.84518493  .00000954  00000-0  93207-4 0  9995
2 00022  50.2832 104.1174 0138782 349.5529  10.2542 14.95495307516216
Epoch (UTC): 19 April 2021 20:17:03
Eccentricity: 0.0138782
inclination: 50.2832°
perigee height: 484 km
apogee height: 677 km
right ascension of ascending node: 104.1174°
argument of perigee: 349.5529°
revolutions per day: 14.95495307
mean anomaly at epoch: 10.2542°
orbit number at epoch: 51621

The dashed part of the orbit path shows where the satellite is in the earth's shadow,  

DLR